Etusivu
METAR-TAF:

METAR-TAF

Lentoasemat :

Lake Charles, Louisiana, Yhdysvallat

Leveyspiiri: 30-13N, Pituuspiiri: 093-09W, korkeus merenpinnasta: 4 m

Tämänhetkinen sää

Tämä raportti tehtiin 1 tunti ja 4 minuuttia sitten, kello 16.47 UTC
Tuuli 11 kn idästä/kaakosta
Lämpötila 26°C
Kosteus 65%
Ilmanpaine 1018 hPa
Näkyvyys: 16.1 km
selkeää

METAR: KCWF 061647Z 12011KT 10SM SKC 26/19 A3006

Aika: 12:51 (17:51 UTC)


TAF: puuttuu

Säähavainnot ja -ennusteet yli 4000 lentoasemalta (METAR- ja TAF-raportit).

Käytössä olevat sääasemat on merkitty karttaan keltaisilla ja punaisilla pisteillä.

Aseta hiiri pisteen päälle nähdäksesi sääaseman nimen.

Klikkaa sitten nähdäksesi säähavainnot ja -ennusteet.

Kartan vaihtaminen: klikkaa mustalla rastilla varustettuja vihreitä pisteitä, niin voit zoomata sisään; viivalla varustettua vihreää pistettä, niin voit zoomata ulos tai vihreitä nuolia, niin pääset viereisille kartoille.


METAR-TAF: